www.pogodaiklimat.ru

Погода и климат >> Архив погоды >> Гондурас >> Йоро


ПОГОДА в Йоро

  • Прогноз погоды в Йоро
  • Монитор погоды в Йоро

АРХИВ ПОГОДЫ в Йоро

Время (UTC), дата Ветер
(напр.,м/с)
 
Видим.   Явления Облачность Т
(С)
Тd
(С)
f
(%)
Тe
(С)
Тes
(С)
Комфортность P
(гПа)
Po
(гПа)
Тmin
(С)
Tmax
(С)
R
(мм)
R24
(мм)
S
(см)
00 11.06 В 2 10 км гроза без осадков 8/5 750 м
[Cb cap Ac cuf]
+21.8 +20.7 93 +28 +28 душно 1012.3 938.3 +20.4 +32.8 4
12 11.06 В 1 10 км дымка 6/6 600 м
[Sc]
+19.2 +19.2 100 +22 +23 комфорт 1014.1 939.2 +19.0 +32.8
15 11.06 З 2 10 км дымка {туман} 5/5 600 м
[Sc]
+22.0 +20.9 93 +28 +35 душно 1016.6 940.9
18 11.06 З 3 10 км мгла {туман} 5/5 750 м
[Cu med, cong]
+29.0 +21.9 66 +37 +46 очень
душно
1014.2 939.8 +19.0 +29.0
21 11.06 З 2 10 км мгла {туман} 6/6 750 м
[Cu hum]
+28.8 +21.1 63 +36 +40 очень
душно
1011.8 938.1
00 12.06 З 2 10 км {метель} 10/10 600 м
[Sc diur, vesp Ac und Cs]
+30.4 +19.0 51 +21 +21 комфорт 1014.4 939.1 +19.0 +30.4 17
12 12.06 В 2 10 км дымка 6/6 600 м
[Sc]
+19.0 +19.0 100 +21 +21 комфорт 1016.0 939.5 +19.0 +3.4
15 12.06 С 2 10 км дымка {туман} 8/8 600 м
[Cb calv Ac und Cs]
+21.6 +20.8 95 +27 +31 душно 1016.6 940.7
18 12.06 З 3 10 км мгла {туман} 8/8 600 м
[Cb calv Ac und Cs]
+26.2 +19.0 65 +33 +39 очень
душно
1014.7 939.8 +19.0 +26.2
21 12.06 З 3 10 км мгла {туман} 8/5 600 м
[Cu Sc As op Cs]
+30.0 +21.8 62 +39 +42 очень
душно
1011.5 938.2
00 13.06 В 2 10 км {морось} 10/10 600 м
[Sc diur, vesp Ac und Cs]
+30.0 +19.0 52 +28 +28 жарко 1014.1 939.0 +19.0 +30.0 14
12 13.06 З 1 10 км дымка 8/4 600 м
[Sc Ac trans]
+19.8 +19.5 98 +24 +24 комфорт 1014.7 939.4 +19.4 +30.0
15 13.06 З 2 10 км мгла {туман} 6/4 600 м
[Sc diur, vesp Ac trans]
+22.4 +20.7 90 +29 +35 очень
душно
1016.6 940.7
18 13.06 СВ 3 10 км мгла {туман} 9/4 700 м
[Cu med, cong Ac As]
+26.4 +21.1 73 +33 +38 очень
душно
1015.8 940.6 +19.4 +26.4
21 13.06 З 3 10 км осадки на расстоянии {туман} 8/4 700 м
[Cu med, cong Ac As]
+27.0 +21.2 71 +34 +37 очень
душно
1013.4 939.3
00 14.06 З 2 10 км мгла {туман} 6/4 700 м
[Cu med, cong Ac trans]
+26.4 +22.3 78 +34 +34 очень
душно
1013.6 939.0 +19.4 +28.0
12 14.06 Ю 1 10 км 8/4 600 м
[Cb calv Ac und Cs]
+28.0 +19.0 58 +23 +23 комфорт 1015.7 940.2 +19.0 +28.0
15 14.06 З 1 10 км мгла {туман} 6/4 600 м
[Sc Ac trans]
+23.8 +21.9 89 +31 +38 очень
душно
1017.4 941.6
18 14.06 З 3 10 км мгла {туман} 8/4 700 м
[Cu med, cong Ac trans Cs]
+27.2 +20.5 67 +34 +42 очень
душно
1015.5 940.5 +19.0 +27.2
21 14.06 З 2 10 км мгла {туман} 8/4 700 м
[Sc diur, vesp Ac As]
+28.2 +21.0 65 +35 +39 очень
душно
1013.1 939.2
00 15.06 В 2 10 км мгла {туман} 9/4 600 м
[Sc Ac As]
+26.4 +20.8 71 +33 +33 очень
душно
1013.4 938.9 +19.0 +28.2
12 15.06 В 1 10 км дымка 4/4 600 м
[Sc]
+21.4 +21.1 98 +27 +27 душно 1015.2 940.0 +21.0 +28.2
15 15.06 З 2 10 км мгла {туман} 6/6 700 м
[Cu med, cong]
+25.0 +22.0 83 +32 +37 очень
душно
1016.0 941.1
18 15.06 СВ 3 10 км мгла {туман} 5/5 750 м
[Cu med, cong]
+29.6 +21.1 60 +37 +46 очень
душно
1013.9 939.5 +21.0 +29.6
21 15.06 СВ 3 10 км мгла {туман} 5/5 750 м
[Cu med, cong]
+31.8 +19.5 48 +38 +42 очень
душно
1011.0 937.9
00 16.06 В 2 10 км мгла {туман} 5/5 750 м
[Cu med, cong]
+29.4 +20.8 60 +37 +37 очень
душно
1011.3 938.0 +21.0 +31.8
12 16.06 штиль 0 10 км мгла 4/4 600 м
[Sc]
+21.0 +20.7 98 +26 +26 душно 1014.1 938.6 +20.5 +31.8
15 16.06 З 3 10 км мгла {туман} 4/4 700 м
[Sc diur, vesp]
+25.4 +21.5 79 +32 +39 очень
душно
1013.1 938.5
18 16.06 С 3 10 км мгла {туман} 4/4 750 м
[Cu med, cong]
+31.0 +21.0 55 +38 +50 очень
душно
1011.5 938.0 +2.5 +31.0
21 16.06 В 3 10 км мгла {туман} 5/5 750 м
[Cu med, cong Ac trans]
+32.6 +21.1 51 +40 +45 очень
душно
1009.1 936.8
15 17.06 З 2 10 км мгла {туман} 8/4 700 м
[Sc diur, vesp Cs]
+25.4 +21.2 78 +32 +39 очень
душно
1014.1 939.4
18 17.06 В 3 10 км мгла {туман} 4/4 750 м
[Cu med, cong]
+30.6 +21.0 57 +38 +49 очень
душно
1011.8 938.0 +20.2 +30.6
21 17.06 С 4 10 км мгла {туман} 4/4 750 м
[Cu med, cong]
+32.4 +20.2 49 +39 +43 очень
душно
1009.1 936.7

 

Местоположение метеостанции Йоро (Гондурас): широта 15.17 долгота -87.11 высота над уровнем моря 670 м.

В архиве по умолчанию представлена погода в Йоро за последнюю неделю. Архивные данные за месяц целиком и за предыдущие месяцы, начиная с января 2011 года, Вы можете получить, выбрав интересующий диапазон дат из раскрывающегося списка и нажав кнопку "Ввод!".


*Определитесь, кто Вы:
робот инопланетянин человек

Внимание! Время в таблицах - всемирное. Для получения местного времени необходимо прибавить поправку, которая равна -6 ч.

Смотрите также архив погоды в соседних городах и на ближайших метеорологических станциях:

Погода в Ла-Сейбе (Гондурас) (68 км)
Погода в Теле (Гондурас) (73 км)
Погода в Ла-Лиме (Гондурас) (93 км)
Погода в Тегусигальпе (Гондурас) (125 км)
Погода в Катакамасе (Гондурас) (130 км)
Погода на Роатане (Гондурас) (143 км)
Погода в Ла-Эсперансе (Гондурас) (147 км)
Погода в Трухильо (Гондурас) (152 км)
Погода в Пуэрто-Барриосе (Гватемала) (171 км)
Погода в Санта-Роза-де-Копане (Гондурас) (185 км)

Пояснения к столбцам:

Ветер - указаны скорость ветра в м/с - средняя за 10 мин, порывы в срок и между сроками (в фигурных скобках) и направление, откуда дует ветер: С - северный, СВ - северо-восточный, В - восточный, ЮВ - юго-восточный, Ю - южный, ЮЗ - юго-западный, З - западный, СЗ - северо-западный.
Видимость - горизонтальная дальность видимости в метрах или километрах. При видимости от 1 до 10 км при отсутствии осадков обычно наблюдается дымка, при ухудшении видимости до 1 км и менее - туман. В сухую погоду видимость может ухудшаться дымом, пылью или мглою.
Явления - указаны атмосферные явления, наблюдавшиеся в срок или в последний час перед сроком; фигурными скобками обозначены явления, наблюдавшиеся между сроками (за 1-3 часа до срока); квадратными скобками обозначены град или гололедные отложения с указанием их диаметра в мм.
Облачность - указаны через наклонную черту общая и нижняя облачность в баллах и высота нижней границы облаков в метрах; квадратными скобками обозначены формы облаков: Ci - перистые, Cs - перисто-слоистые, Cc - перисто-кучевые, Ac - высококучевые, As - высокослоистые, Sc - слоисто-кучевые, Ns - слоисто-дождевые, Cu - кучевые, Cb - кучево-дождевые. Подробнее классификацию облаков см. в Атласе облаков (PDF).
T - Температура воздуха - температура, измеренная на высоте 2 м над землей.
Td - Температура точки росы - температура, при понижении до которой содержащийся в воздухе водяной пар достигнет насыщения.
f - Относительная влажность воздуха - влажноcть воздуха, измеренная на высоте 2 м над землей.
Te - Эффективная температура - температура, которую ощущает одетый по сезону человек в тени. Характеристика душности погоды. При расчете учитывается влияние влажности воздуха и скорости ветра на теплоощущения человека.
Tes - Эффективная температура на солнце - температура, которую ощущает человек, с поправкой на солнечный нагрев. Характеристика знойности погоды. Зависит от высоты солнца над горизонтом, облачности и скорости ветра. Ночью, в пасмурную погоду, а также при ветре 12 м/с и более поправка равна нулю.
P - Атмосферное давление - приведенное к уровню моря атмосферное давление.
Po - Атмосферное давление - измеренное на уровне метеостанции атмосферное давление.
Tmin - Минимальная температура - минимум температуры воздуха на высоте 2 м над землей.
Tmax - Максимальная температура - максимум температуры воздуха на высоте 2 м над землей.
R - Количество осадков - Количество выпавших осадков за период времени, мм. При наведении курсора мыши на число - период времени, за который выпало указанное количество осадков.
R24 - Количество осадков - Количество выпавших осадков за 24 часа, мм.
S - Снежный покров - Высота снежного покрова, см. При наведении курсора мыши на число - состояние снежного покрова и степень покрытия местности в баллах.